Weather History for Goodland, KS

Change the Weather History Date:

Friday, February 22, 2013

  Actual Average Record
Temperature  
Mean Temperature 15 °F 34 °F  
Max Temperature 31 °F 47 °F 77 °F (1982)
Min Temperature -1 °F 21 °F -4 °F (1911)
Degree Days  
Heating Degree Days 50 31  
Month to date heating degree days 715 736  
Since 1 July heating degree days 4051 4239  
Cooling Degree Days 0 0  
Month to date cooling degree days 0 0  
Year to date cooling degree days 0 0  
Moisture  
Dew Point 11 °F    
Average Humidity 82    
Maximum Humidity 95    
Minimum Humidity 69    
Precipitation  
Precipitation 0.00 in 0.02 in 0.50 in (1925)
Month to date precipitation 0.74 0.36  
Year to date precipitation 0.81 0.74  
Snow  
Snow 0.00 in 0.20 in - ()
Month to date snowfall 11.9 4.4  
Since 1 July snowfall 22.6 23.0  
Snow Depth 10.00 in    
Sea Level Pressure  
Sea Level Pressure 30.08 in    
Wind  
Wind Speed 8 mph (WNW)    
Max Wind Speed 14 mph    
Max Gust Speed 15 mph    
Visibility 10 miles    
Events      
T = Trace of Precipitation, MM = Missing Value Source: NWS Daily Summary

Daily Weather History Graph

Daily Weather History Graph

Search for Another Location

Airport:

Trip Planner

Search our weather history database for the weather conditions in past years. The results will help you decide how hot, cold, wet, or windy it might be!

Date:

Astronomy

Feb. 22, 2013 Rise Set
Actual Time 6:29 AM MST 5:31 PM MST
Civil Twilight 6:01 AM MST 5:59 PM MST
Nautical Twilight 5:30 AM MST 6:30 PM MST
Astronomical Twilight 4:59 AM MST 7:01 PM MST
Moon 2:45 PM MST (2/22) 4:14 AM MST (2/22)
Length of Visible Light 11h 57m
Length of Day
11h 02m
Waxing Gibbous, 90% of the Moon is Illuminated
Feb 22
Waxing Gibbous
Feb 25
Full
Mar 4
Last Quarter
Mar 11
New
Mar 19
First Quarter

Hourly Weather History & Observations

Time (MST) Temp. Windchill Dew Point Humidity Pressure Visibility Wind Dir Wind Speed Gust Speed Precip Events Conditions
12:24 AM 10.4 °F -2.4 °F 8.6 °F 92% 29.90 in 9.0 mi WNW 9.2 mph - N/A   Overcast
1:53 AM 3.0 °F -12.5 °F -0.0 °F 87% 30.06 in 10.0 mi WNW 10.4 mph - N/A   Clear
2:53 AM 1.9 °F -10.6 °F -0.9 °F 88% 30.05 in 10.0 mi WNW 6.9 mph - N/A   Partly Cloudy
3:53 AM 1.0 °F -6.7 °F -2.9 °F 83% 30.06 in 10.0 mi WNW 3.5 mph - N/A   Clear
4:53 AM 1.9 °F -13.8 °F -0.9 °F 88% 30.09 in 10.0 mi WSW 10.4 mph - N/A   Clear
5:53 AM -0.0 °F -16.3 °F -4.0 °F 83% 30.09 in 10.0 mi WNW 10.4 mph - N/A   Clear
6:53 AM 6.1 °F -7.8 °F 3.0 °F 87% 30.09 in 7.0 mi West 9.2 mph - N/A   Clear
7:53 AM 9.0 °F -5.1 °F 6.1 °F 88% 30.11 in 9.0 mi West 10.4 mph - N/A   Clear
8:53 AM 12.0 °F -0.4 °F 8.1 °F 84% 30.13 in 10.0 mi West 9.2 mph - N/A   Clear
9:53 AM 18.0 °F 4.8 °F 12.9 °F 81% 30.11 in 10.0 mi West 12.7 mph - N/A   Clear
10:53 AM 24.1 °F 15.2 °F 17.1 °F 75% 30.10 in 10.0 mi NW 8.1 mph - N/A   Clear
11:53 AM 27.0 °F 18.7 °F 19.0 °F 72% 30.09 in 10.0 mi WNW 8.1 mph - N/A   Clear
12:53 PM 28.9 °F 22.8 °F 21.0 °F 72% 30.07 in 10.0 mi NW 5.8 mph - N/A   Clear
1:53 PM 30.0 °F 24.1 °F 21.0 °F 69% 30.07 in 10.0 mi North 5.8 mph - N/A   Clear
2:53 PM 30.0 °F 23.2 °F 21.0 °F 69% 30.09 in 9.0 mi North 6.9 mph - N/A   Clear
3:53 PM 28.9 °F 22.8 °F 21.0 °F 72% 30.09 in 8.0 mi NNW 5.8 mph - N/A   Clear
4:53 PM 26.1 °F 20.5 °F 19.0 °F 75% 30.10 in 10.0 mi NW 4.6 mph - N/A   Clear
5:53 PM 21.0 °F 13.4 °F 16.0 °F 81% 30.11 in 10.0 mi West 5.8 mph - N/A   Clear
6:53 PM 17.1 °F 10.0 °F 12.9 °F 84% 30.11 in 10.0 mi West 4.6 mph - N/A   Clear
7:53 PM 15.1 °F 7.7 °F 10.9 °F 84% 30.11 in 7.0 mi SW 4.6 mph - N/A   Clear
8:53 PM 10.9 °F 4.7 °F 8.1 °F 88% 30.11 in 6.0 mi SW 3.5 mph - N/A   Clear
9:53 PM 15.1 °F 2.5 °F 12.0 °F 88% 30.09 in 10.0 mi WSW 10.4 mph - N/A   Clear
10:53 PM 15.1 °F 2.5 °F 10.0 °F 80% 30.06 in 10.0 mi WSW 10.4 mph - N/A   Clear
11:53 PM 17.1 °F 3.6 °F 12.0 °F 81% 30.01 in 10.0 mi WSW 12.7 mph - N/A   Clear